Regional Weather Roundup
Issued by NWS

Home | Current Version | Previous Version | Text Only | Print | Product List | Glossary On
Versions: 1 2 3 4 5 6 7 8 9 10 11 12 13 14 15 16 17 18 19 20 21 22 23 24 25 26 27 28 29 30 31 32 33 34 35 36 37 38 39 40 41 42 43 44 45 46 47 48 49 50
000
ASUS46 KSTO 250915
RWRCA

NORTHERN AND CENTRAL CA REGIONAL WEATHER ROUNDUP
NATIONAL WEATHER SERVICE SACRAMENTO CA
200 AM PDT SUN JUN 25 2017

NOTE: FAIR INDICATES FEW OR NO CLOUDS BELOW 12,000 FEET WITH NO
SIGNIFICANT WEATHER AND/OR OBSTRUCTIONS TO VISIBILITY.

CAZ001-003-251000-
NORTHWEST AREA

CITY           SKY/WX    TMP DP  RH WIND       PRES   REMARKS
CRESCENT CITY  CLOUDY    50  50 100 S5        29.94R FOG
UKIAH          PTCLDY    64  56  75 S3        29.91S
$$

CAZ006-505>513-251000-
BAY AREA

CITY           SKY/WX    TMP DP  RH WIND       PRES   REMARKS
SANTA ROSA     CLOUDY    56  53  90 S5        29.92S
SAN RAFAEL     N/A       57  MM  MM MISG
NAPA           PTCLDY    59  54  83 W12       29.91S
CONCORD        CLEAR     62  53  72 S10       29.90S
OAKLAND CITY   N/A      MM  MM  MM MISG
OAKLAND        CLOUDY    60  56  86 W16       29.94F
SAN FRAN CITY  N/A       55  MM  99 MISG
SAN FRAN ARPT  CLOUDY    58  54  86 W14       29.94S
LIVERMORE      CLEAR     58  54  86 NW10      29.91S
HAYWARD        CLOUDY    60  53  77 NW10      29.94S
REDWOOD CITY   N/A       61  MM  83 MISG
MOFFETT ARPT   CLOUDY    61  57  87 NE7       29.94F
SAN JOSE ARPT  CLOUDY    62  58  86 NW5       29.93F
$$
CAZ034-037-514>518-251000-
CENTRAL COAST

CITY           SKY/WX    TMP DP  RH WIND       PRES   REMARKS
WATSONVILLE    CLOUDY    56  56 100 E5        29.95S
SALINAS        CLOUDY    56  56 100 W7        29.96R FOG
MONTEREY       CLOUDY    56  56 100 SW7       29.97S FOG
SAN LUIS OBISP CLOUDY    57  56  96 NW9       29.93S
SANTA MARIA    CLOUDY    56  56 100 W6        29.94S FOG
$$
CAZ015-016-251000-
NORTHERN SACRAMENTO VALLEY

CITY           SKY/WX    TMP DP  RH WIND       PRES   REMARKS
REDDING        PTCLDY    83  68  60 N3        29.83F
RED BLUFF      PTCLDY    83  67  58 NE6       29.83S
OROVILLE       MOCLDY    82  63  52 S5        29.81F
$$
CAZ016>018-251000-
SOUTHERN SACRAMENTO VALLEY

CITY           SKY/WX    TMP DP  RH WIND       PRES   REMARKS
AUBURN         PTCLDY    79  57  47 E7        29.89F
BEALE AFB      MOCLDY    73  62  68 S8        29.79S
LINCOLN        FAIR      73  52  46 S7        29.80F
MARYSVILLE     MOCLDY    73  59  61 SE5       29.81S
SAC INTL ARPT  MOCLDY    69  57  65 S15       29.81S
MATHER AIRPORT NOT AVBL
DOWNTOWN SAC   N/A       67  MM  MM MISG
SAC EXEC ARPT  MOCLDY    65  57  75 S8        29.83S
VACAVILLE      PTCLDY    68  56  65 NE3       29.83R
TRAVIS AFB     CLEAR     59  54  85 SW28G35   29.81R
$$
CAZ019>021-251000-
SAN JOAQUIN VALLEY

CITY           SKY/WX    TMP DP  RH WIND       PRES   REMARKS
STOCKTON       CLEAR     68  56  65 NW10      29.85R
MODESTO        CLEAR     73  56  54 NW8       29.83R
MERCED         CLEAR     73  58  59 NW6       29.83R
LEMOORE        CLEAR     73  60  63 SW8       29.84S
FRESNO         CLEAR     82  66  58 W5        29.83S
HANFORD        CLEAR     76  68  76 W6        29.84R
PORTERVILLE      N/A     78  62  57 SE5       29.85S
BAKERSFIELD    CLEAR     84  59  42 E3        29.84S
$$
CAZ011-012-071-251000-
NORTHERN MOUNTAINS

CITY           SKY/WX    TMP DP  RH WIND       PRES   REMARKS
YREKA          CLEAR     65  43  44 CALM      30.00R
MOUNT SHASTA   CLEAR     60  51  72 CALM      30.07S
ALTURAS        CLEAR     63  43  48 S3        30.12S
$$
CAZ011-012-071-251000-
SIERRA NEVADA MTNS

CITY           SKY/WX    TMP DP  RH WIND       PRES   REMARKS
BLUE CANYON    PTCLDY    77  40  26 NE6       30.19F
TRUCKEE        PTCLDY    54  50  87 S5        30.26S
TAHOE VLY ARPT PTCLDY    59  43  55 CALM      30.27F
MAMMOTH LAKES  FAIR      53  35  50 NE5       30.35S
$$




USA.gov is the U.S. government's official web portal to all federal, state and local government web resources and services.